• Em Portugal
  • Lista de países
  • Para 7 dias
  • Temperatura da água
  • Mapas de satélite
  • Mapa do tempo
  • Widgets de tempo
  • user-avatar
    Iniciar Sessão

    Previsão horária em Gerata

    Hoje, 19 Setembro, Terça-feira

    Tempo Temperatura Precipitação Vento Pressão Humidade
    00:00 +20°C° 0 mm 6 m/s 680 mmHg 18%
    01:00 +20°C° 0 mm 6 m/s 679 mmHg 19%
    02:00 +19°C° 0 mm 6 m/s 679 mmHg 20%
    03:00 +19°C° 0 mm 6 m/s 679 mmHg 20%
    04:00 +19°C° 0 mm 6 m/s 679 mmHg 21%
    05:00 +19°C° 0 mm 6 m/s 679 mmHg 20%
    06:00 +20°C° 0 mm 6 m/s 679 mmHg 20%
    07:00 +20°C° 0 mm 6 m/s 679 mmHg 20%
    08:00 +22°C° 0 mm 6 m/s 680 mmHg 17%
    09:00 +24°C° 0 mm 7 m/s 680 mmHg 15%
    10:00 +28°C° 0 mm 7 m/s 681 mmHg 13%
    11:00 +29°C° 0 mm 7 m/s 681 mmHg 12%
    12:00 +31°C° 0 mm 8 m/s 680 mmHg 12%
    13:00 +31°C° 0 mm 9 m/s 680 mmHg 11%
    14:00 +31°C° 0 mm 9 m/s 680 mmHg 12%
    15:00 +31°C° 0 mm 10 m/s 679 mmHg 12%
    16:00 +31°C° 0 mm 11 m/s 679 mmHg 13%
    17:00 +28°C° 0 mm 10 m/s 679 mmHg 14%
    18:00 +27°C° 0 mm 10 m/s 679 mmHg 16%
    19:00 +26°C° 0 mm 9 m/s 679 mmHg 17%
    20:00 +24°C° 0 mm 9 m/s 680 mmHg 18%
    21:00 +24°C° 0 mm 8 m/s 680 mmHg 18%
    22:00 +23°C° 0 mm 8 m/s 680 mmHg 19%
    23:00 +22°C° 0 mm 7 m/s 679 mmHg 19%

    Amanhã, 20 Setembro, Quarta-feira

    Tempo Temperatura Precipitação Vento Pressão Humidade
    00:00 +22°C° 0 mm 7 m/s 679 mmHg 20%
    01:00 +21°C° 0 mm 6 m/s 679 mmHg 21%
    02:00 +20°C° 0 mm 6 m/s 679 mmHg 21%
    03:00 +20°C° 0 mm 6 m/s 679 mmHg 22%
    04:00 +19°C° 0 mm 6 m/s 679 mmHg 22%
    05:00 +20°C° 0 mm 6 m/s 679 mmHg 22%
    06:00 +20°C° 0 mm 6 m/s 679 mmHg 21%
    07:00 +20°C° 0 mm 6 m/s 679 mmHg 20%
    08:00 +22°C° 0 mm 7 m/s 680 mmHg 18%
    09:00 +24°C° 0 mm 8 m/s 680 mmHg 15%
    10:00 +28°C° 0 mm 9 m/s 680 mmHg 12%
    11:00 +28°C° 0 mm 9 m/s 680 mmHg 11%
    12:00 +29°C° 0 mm 9 m/s 680 mmHg 11%
    13:00 +31°C° 0 mm 10 m/s 680 mmHg 10%
    14:00 +31°C° 0 mm 10 m/s 679 mmHg 11%
    15:00 +29°C° 0 mm 10 m/s 679 mmHg 11%
    16:00 +29°C° 0 mm 10 m/s 679 mmHg 11%
    17:00 +28°C° 0 mm 9 m/s 679 mmHg 13%
    18:00 +26°C° 0 mm 8 m/s 679 mmHg 14%
    19:00 +24°C° 0 mm 7 m/s 679 mmHg 15%
    20:00 +23°C° 0 mm 7 m/s 679 mmHg 16%
    21:00 +23°C° 0 mm 6 m/s 679 mmHg 17%
    22:00 +22°C° 0 mm 5 m/s 679 mmHg 18%
    23:00 +22°C° 0 mm 5 m/s 679 mmHg 19%

    Depois de amanhã, 21 Setembro, Quinta-feira

    Tempo Temperatura Precipitação Vento Pressão Humidade
    00:00 +21°C° 0 mm 5 m/s 678 mmHg 20%
    01:00 +20°C° 0 mm 5 m/s 678 mmHg 21%
    02:00 +20°C° 0 mm 5 m/s 678 mmHg 22%
    03:00 +19°C° 0 mm 5 m/s 678 mmHg 23%
    04:00 +19°C° 0 mm 5 m/s 678 mmHg 24%
    05:00 +20°C° 0 mm 5 m/s 678 mmHg 23%
    06:00 +20°C° 0 mm 5 m/s 678 mmHg 22%
    07:00 +20°C° 0 mm 5 m/s 679 mmHg 22%
    08:00 +22°C° 0 mm 6 m/s 679 mmHg 20%
    09:00 +26°C° 0 mm 7 m/s 679 mmHg 18%
    10:00 +28°C° 0 mm 8 m/s 680 mmHg 16%
    11:00 +28°C° 0 mm 8 m/s 679 mmHg 15%
    12:00 +29°C° 0 mm 9 m/s 679 mmHg 14%
    13:00 +31°C° 0 mm 9 m/s 679 mmHg 14%
    14:00 +29°C° 0 mm 9 m/s 678 mmHg 14%
    15:00 +29°C° 0 mm 9 m/s 678 mmHg 15%
    16:00 +29°C° 0 mm 10 m/s 678 mmHg 15%
    17:00 +28°C° 0 mm 9 m/s 678 mmHg 16%
    18:00 +26°C° 0 mm 8 m/s 678 mmHg 18%
    19:00 +24°C° 0 mm 8 m/s 678 mmHg 19%
    20:00 +23°C° 0 mm 7 m/s 678 mmHg 20%
    21:00 +23°C° 0 mm 7 m/s 678 mmHg 20%
    22:00 +22°C° 0 mm 6 m/s 678 mmHg 21%
    23:00 +22°C° 0 mm 6 m/s 678 mmHg 22%

    22 Setembro, Sexta-feira

    Tempo Temperatura Precipitação Vento Pressão Humidade
    00:00 +21°C° 0 mm 6 m/s 678 mmHg 22%
    01:00 +21°C° 0 mm 6 m/s 678 mmHg 23%
    02:00 +20°C° 0 mm 6 m/s 678 mmHg 24%
    03:00 +20°C° 0 mm 6 m/s 678 mmHg 24%
    04:00 +19°C° 0 mm 6 m/s 677 mmHg 25%
    05:00 +20°C° 0 mm 5 m/s 678 mmHg 24%
    06:00 +20°C° 0 mm 5 m/s 678 mmHg 24%
    07:00 +21°C° 0 mm 5 m/s 679 mmHg 23%
    08:00 +23°C° 0 mm 5 m/s 679 mmHg 20%
    09:00 +26°C° 0 mm 6 m/s 680 mmHg 18%
    10:00 +28°C° 0 mm 6 m/s 680 mmHg 15%
    11:00 +29°C° 0 mm 7 m/s 680 mmHg 14%
    12:00 +30°C° 0 mm 7 m/s 680 mmHg 14%
    13:00 +30°C° 0 mm 7 m/s 679 mmHg 13%
    14:00 +30°C° 0 mm 7 m/s 679 mmHg 13%
    15:00 +31°C° 0 mm 8 m/s 679 mmHg 14%
    16:00 +31°C° 0 mm 8 m/s 679 mmHg 14%
    17:00 +28°C° 0 mm 7 m/s 679 mmHg 16%
    18:00 +27°C° 0 mm 7 m/s 679 mmHg 17%
    19:00 +24°C° 0 mm 6 m/s 679 mmHg 19%
    20:00 +24°C° 0 mm 6 m/s 679 mmHg 19%
    21:00 +23°C° 0 mm 5 m/s 679 mmHg 20%
    22:00 +22°C° 0 mm 5 m/s 680 mmHg 21%
    23:00 +22°C° 0 mm 5 m/s 679 mmHg 21%

    23 Setembro, Sábado

    Tempo Temperatura Precipitação Vento Pressão Humidade
    00:00 +21°C° 0 mm 5 m/s 679 mmHg 22%
    01:00 +21°C° 0 mm 5 m/s 679 mmHg 23%
    02:00 +20°C° 0 mm 5 m/s 679 mmHg 23%
    03:00 +20°C° 0 mm 5 m/s 679 mmHg 24%
    04:00 +19°C° 0 mm 5 m/s 679 mmHg 24%
    05:00 +20°C° 0 mm 4 m/s 679 mmHg 23%
    06:00 +20°C° 0 mm 4 m/s 680 mmHg 23%
    07:00 +21°C° 0 mm 4 m/s 680 mmHg 22%
    08:00 +23°C° 0 mm 5 m/s 681 mmHg 19%
    09:00 +26°C° 0 mm 5 m/s 681 mmHg 17%
    10:00 +28°C° 0 mm 6 m/s 682 mmHg 15%
    11:00 +29°C° 0 mm 6 m/s 681 mmHg 14%
    12:00 +30°C° 0 mm 6 m/s 681 mmHg 13%
    13:00 +32°C° 0 mm 7 m/s 681 mmHg 12%
    14:00 +32°C° 0 mm 7 m/s 681 mmHg 12%
    15:00 +31°C° 0 mm 8 m/s 681 mmHg 12%
    16:00 +31°C° 0 mm 8 m/s 680 mmHg 12%
    17:00 +28°C° 0 mm 8 m/s 681 mmHg 13%
    18:00 +27°C° 0 mm 7 m/s 681 mmHg 14%
    19:00 +26°C° 0 mm 7 m/s 681 mmHg 15%
    20:00 +24°C° 0 mm 6 m/s 681 mmHg 16%
    21:00 +23°C° 0 mm 6 m/s 681 mmHg 16%
    22:00 +22°C° 0 mm 6 m/s 681 mmHg 16%
    23:00 +22°C° 0 mm 5 m/s 681 mmHg 17%

    24 Setembro, Domingo

    Tempo Temperatura Precipitação Vento Pressão Humidade
    00:00 +21°C° 0 mm 5 m/s 680 mmHg 17%
    01:00 +21°C° 0 mm 5 m/s 680 mmHg 17%
    02:00 +20°C° 0 mm 5 m/s 680 mmHg 18%
    03:00 +20°C° 0 mm 5 m/s 680 mmHg 19%
    04:00 +19°C° 0 mm 4 m/s 680 mmHg 20%
    05:00 +20°C° 0 mm 5 m/s 680 mmHg 19%
    06:00 +20°C° 0 mm 5 m/s 681 mmHg 19%
    07:00 +21°C° 0 mm 5 m/s 681 mmHg 19%
    08:00 +23°C° 0 mm 6 m/s 682 mmHg 17%
    09:00 +26°C° 0 mm 7 m/s 682 mmHg 15%
    10:00 +28°C° 0 mm 8 m/s 682 mmHg 13%
    11:00 +29°C° 0 mm 8 m/s 682 mmHg 13%
    12:00 +29°C° 0 mm 8 m/s 682 mmHg 12%
    13:00 +31°C° 0 mm 8 m/s 681 mmHg 12%
    14:00 +31°C° 0 mm 8 m/s 681 mmHg 13%
    15:00 +29°C° 0 mm 9 m/s 681 mmHg 13%
    16:00 +29°C° 0 mm 9 m/s 681 mmHg 14%
    17:00 +27°C° 0 mm 8 m/s 681 mmHg 16%
    18:00 +26°C° 0 mm 8 m/s 681 mmHg 18%
    19:00 +24°C° 0 mm 7 m/s 681 mmHg 20%
    20:00 +23°C° 0 mm 7 m/s 681 mmHg 21%
    21:00 +22°C° 0 mm 7 m/s 681 mmHg 23%
    22:00 +21°C° 0 mm 7 m/s 681 mmHg 24%
    23:00 +21°C° 0 mm 7 m/s 681 mmHg 25%
    Mostrar mais